Weather in Annovka

Russia / Amur Oblast     50°22′46″N   128°21′02″E
temp.,
°C
wind,
m/s
gust,
m/s
humid.,
%
clouds,
%
prec.,
mm/h
press.,
hPa
HPBL,
m
8 may, sat
sat800:00+7nne61341100 0.0 997447
03:00+6n6124995 0.0 997421
06:00+4n7135650 0.0 997481
09:00+7n7946100 0.0 998817
12:00+11n6741100 0.0 9971374
15:00+12n6738100 0.0 9962000
18:00+12ne5639100 0.0 9971947
21:00+7ne6976100 0.0 1000403
9 may, sun
sun900:00+7ne4681100 0.4 1001945
03:00+6n5784100 0.6 1001496
06:00+5n5886100 0.0 1002524
09:00+5n5781100 0.0 1003582
12:00+7n5677100 0.0 1004922
15:00+8nnw5673100 0.1 1005874
18:00+9nw5666100 0.0 1006769
21:00+7nw4871100 0.0 1007307
10 may, mon
mon1000:00+7nw3872100 0.0 1008271
03:00+6nw377396 0.0 1009224
06:00+7nw3674100 0.0 1010253
09:00+7wnw3572100 0.1 1011280
12:00+10w2360100 0.0 1011625
15:00+14nnw2443100 0.0 10101842
18:00+15ne2339100 0.0 10101780
21:00+10sse346336 0.0 101262
11 may, tue
tue1100:00+7ssw228239 0.0 101433
03:00+6s22812 0.0 101422
06:00+7sse357874 0.0 1014115
09:00+13sse565033 0.0 1014614
12:00+17sse663499 0.0 10121660
15:00+18sse7832100 0.0 10102279
18:00+17se8113759 0.0 10071642
21:00+13se91759100 0.0 1008643
12 may, wed
wed1200:00+11se101965100 0.0 1006679
03:00+10se101871100 0.1 1004634
06:00+10se111771100 0.1 1003833
09:00+8se101687100 6.6 1002681
12:00+12sse101273100 0.1 10011064
15:00+13se101374100 0.9 9981148
18:00+11se8128399 8.7 998613
21:00+9s4107518 10.0 999192